Location: Andiroba
(19.8650°S, 43.9258°W)
Time: 23:55:06
(UTC+00:00)

Cosmos 1816 Rocket - Pass Details

Date: 15 June 2024
Orbit: 950 x 999 km, 82.9° (Epoch: 24 July)

Event Time Altitude Azimuth Distance (km) Brightness Sun altitude
Rises 08:29:05 0° 349° (N) 3,639 7.6 -13.7°
Reaches altitude 10° 08:31:36 10° 346° (NNW) 2,692 6.9 -13.2°
Maximum altitude 08:37:41 64° 265° (W) 1,059 4.5 -11.8°
Drops below altitude 10° 08:43:47 10° 184° (S) 2,694 6.6 -10.5°
Sets 08:46:19 0° 180° (S) 3,643 7.3 -9.9°
